CDT,Max TemperatureF,Mean TemperatureF,Min TemperatureF,Max Dew PointF,MeanDew PointF,Min DewpointF,Max Humidity, Mean Humidity, Min Humidity, Max Sea Level PressureIn, Mean Sea Level PressureIn, Min Sea Level PressureIn, Max VisibilityMiles, Mean VisibilityMiles, Min VisibilityMiles, Max Wind SpeedMPH, Mean Wind SpeedMPH, Max Gust SpeedMPH,PrecipitationIn, CloudCover, Events, WindDirDegrees
2014-3-1,58,50,41,42,36,30,70,57,43,30.19,30.14,30.10,10,10,10,15,6,19,0.00,8,,189
2014-3-2,54,40,26,47,32,24,96,78,59,30.18,30.11,30.01,10,4,1,18,7,27,2.03,8,Rain,1
2014-3-3,27,21,14,25,16,10,92,76,60,30.40,30.23,30.07,10,4,1,22,9,30,0.44,7,Snow,19
2014-3-4,31,22,12,28,18,8,92,78,63,30.35,30.26,30.18,10,9,5,9,3,11,T,5,,58
2014-3-5,40,34,28,29,27,22,100,81,61,30.28,30.23,30.17,10,5,0,12,4,15,0.00,5,Fog,74
2014-3-6,44,35,25,28,23,18,85,65,45,30.23,30.15,30.06,10,10,7,13,4,14,0.00,0,,57
2014-3-7,53,38,23,35,28,22,100,71,42,30.09,30.04,30.00,10,6,1,12,2,13,0.00,0,,221
2014-3-8,59,44,29,42,33,27,92,72,51,30.22,30.10,30.04,10,5,1,18,6,24,T,1,Rain,280
2014-3-9,52,42,32,35,27,22,82,58,34,30.32,30.22,30.11,10,9,4,12,5,16,0.00,3,,303
2014-3-10,67,50,32,42,36,28,85,59,32,30.11,29.97,29.84,10,9,5,18,9,23,0.00,0,,223
2014-3-11,76,60,44,51,43,37,92,60,27,29.84,29.72,29.54,10,10,9,16,8,21,0.00,1,,212
2014-3-12,64,49,34,57,40,23,82,64,46,30.10,29.67,29.41,10,10,4,33,13,48,0.05,7,Rain,285
2014-3-13,46,37,28,25,19,14,75,52,29,30.29,30.20,30.09,10,10,10,12,6,17,0.00,1,,246
2014-3-14,64,52,40,34,28,19,59,42,25,30.14,30.06,29.96,10,10,10,30,12,37,0.00,2,,211
2014-3-15,68,52,35,37,30,21,85,52,18,30.13,30.04,29.96,10,10,10,12,2,14,0.00,0,,158
2014-3-16,51,41,30,37,33,27,96,71,46,29.96,29.85,29.78,10,6,2,26,13,32,0.41,8,Rain,41
2014-3-17,45,37,29,33,28,21,85,72,58,29.93,29.87,29.81,10,10,9,17,8,23,0.00,6,,68
2014-3-18,58,48,37,43,38,32,92,75,57,29.99,29.90,29.83,10,8,2,23,9,31,0.00,7,,149
2014-3-19,64,53,42,47,41,33,80,60,39,30.14,29.95,29.87,10,10,5,25,14,35,T,4,Rain,236
2014-3-20,60,45,29,33,28,23,92,58,24,30.22,30.15,30.08,10,7,1,14,3,18,0.00,0,,208
2014-3-21,69,50,31,32,27,20,92,54,16,30.10,30.01,29.93,10,10,10,18,7,24,0.00,0,,204
2014-3-22,61,53,45,36,31,24,54,40,25,30.15,30.06,29.92,10,10,10,15,7,21,0.00,2,,323
2014-3-23,51,42,33,30,24,16,64,48,31,30.34,30.25,30.16,10,10,8,15,8,23,0.00,2,,358
2014-3-24,50,38,26,19,14,9,68,44,19,30.34,30.24,30.11,10,10,10,12,5,18,0.00,1,,355
2014-3-25,42,35,28,31,23,7,85,55,25,30.30,30.14,30.05,10,6,0,24,9,36,T,7,Fog-Snow,315
2014-3-26,46,33,19,19,11,5,67,44,20,30.44,30.33,30.23,10,10,10,12,3,17,0.00,0,,178
2014-3-27,63,51,39,43,23,13,71,44,17,30.22,30.05,29.87,10,10,4,39,17,50,0.24,7,Rain,172
2014-3-28,69,61,53,57,53,44,93,78,63,30.00,29.96,29.86,10,10,4,24,8,31,0.09,7,Rain,204
2014-3-29,58,50,41,53,42,34,93,83,73,30.22,29.99,29.86,10,7,2,21,9,28,0.47,8,Rain,333
2014-3-30,60,48,36,34,30,25,79,54,28,30.28,30.21,30.15,10,10,9,12,3,16,0.00,2,,340
2014-3-31,72,50,28,36,27,19,92,54,15,30.21,30.10,29.96,10,10,7,17,5,23,T,1,Rain,171